www.pogodaiklimat.ru

Погода и климат >> Архив погоды >> Норвегия >> Ferder Fyr


ПОГОДА в Ferder Fyr

  • Прогноз погоды в Ferder Fyr
  • Монитор погоды в Ferder Fyr
  • Климат города

АРХИВ ПОГОДЫ в Ferder Fyr

Время (UTC), дата Ветер
(напр.,м/с)
 
Видим.   Явления Облачность Т
(С)
Тd
(С)
f
(%)
Тe
(С)
Тes
(С)
Комфортность P
(гПа)
Po
(гПа)
Тmin
(С)
Tmax
(С)
R
(мм)
R24
(мм)
S
(см)
22 6.12 В 7
{8}
н/о н/о +2.8 +1.5 91 -4 -4 1000.6 999.7
23 6.12 СВ 8
{10}
н/о н/о +2.8 +1.6 92 -4 -4 999.4 998.5
00 7.12 СВ 7
{11}
н/о н/о +2.7 +1.5 92 -4 -4 999.1 998.2
02 7.12 С 7
{10}
н/о н/о +2.3 +1.3 93 -4 -4 999.2 998.3
01 7.12 С 8
{10}
н/о н/о +3.0 +1.8 92 -4 -4 999.4 998.5
03 7.12 С 7
{10}
н/о н/о +2.2 +1.2 93 -4 -4 999.0 998.1
04 7.12 С 6
{9}
н/о н/о +1.6 +0.5 92 -5 -5 999.1 998.1
05 7.12 С 5
{8}
н/о н/о +1.7 +0.6 92 -4 -4 999.2 998.2
06 7.12 СЗ 5
{10}
н/о н/о +1.3 0.0 91 -5 -5 1000.2 999.2 +1.3 +3.1
08 7.12 СВ 7
{9}
н/о н/о +1.8 +0.3 90 -5 -5 997.7 996.7
07 7.12 С 4
{6}
н/о н/о +1.3 -0.1 90 -4 -4 999.7 998.7
09 7.12 В 1
{9}
н/о н/о +1.6 +0.1 90 -0 -0 998.9 997.9
10 7.12 СВ 2
{3}
н/о н/о +1.8 +0.2 89 -2 -2 998.3 997.3
11 7.12 СЗ 2
{4}
н/о н/о +1.4 0.0 90 -2 -2 998.5 997.5
12 7.12 СВ 5
{9}
н/о н/о +2.0 +0.5 90 -4 -4 996.7 995.8
14 7.12 В 4
{8}
н/о н/о +2.2 +0.9 91 -3 -3 994.5 993.6
13 7.12 СВ 8
{10}
н/о н/о +2.0 +0.7 91 -5 -5 995.1 994.2
15 7.12 В 6
{9}
н/о н/о +2.2 +1.2 93 -4 -4 993.1 992.2
16 7.12 В 8
{9}
н/о н/о +2.3 +1.4 94 -5 -5 991.6 990.7
17 7.12 В 7
{9}
н/о н/о +2.4 +1.5 94 -4 -4 990.0 989.1
18 7.12 СВ 8
{10}
н/о н/о +2.6 +1.6 93 -4 -4 988.5 987.6 +1.3 +2.6
21 7.12 СВ 10
{13}
н/о н/о +3.5 +2.5 93 -4 -4 984.0 983.1
00 8.12
{15}
н/о н/о +2.7 +2.0 95 981.9 981.0
02 8.12 С 9
{13}
н/о н/о +1.6 +0.9 95 -6 -6 982.5 981.6
01 8.12 С 10
{15}
н/о н/о +2.1 +1.4 95 -6 -6 981.8 980.9
03 8.12 СЗ 9
{12}
н/о н/о +1.1 +0.4 95 -7 -7 983.1 982.2
04 8.12 СЗ 6
{10}
н/о н/о +1.1 +0.4 95 -5 -5 983.2 982.3
05 8.12 СЗ 5
{8}
н/о н/о +1.1 +0.4 95 -5 -5 983.6 982.7
06 8.12 СЗ 3
{15}
н/о н/о +1.2 +0.5 95 -3 -3 983.7 982.8 +1.0 +3.5
08 8.12 штиль 0
{2}
н/о н/о +1.1 +0.3 94 -0 -0 983.5 982.6
07 8.12 СЗ 1
{3}
н/о н/о +1.0 +0.2 94 -1 -1 983.7 982.8
09 8.12 ЮВ 2
{3}
н/о н/о +1.5 +0.5 93 -2 -2 982.7 981.8
10 8.12 В 4
{5}
н/о н/о +1.9 +0.7 92 -3 -3 982.3 981.4
11 8.12 В 6
{7}
н/о н/о +2.1 +0.9 92 -4 -4 981.2 980.3
12 8.12 СВ 6
{7}
н/о н/о +2.1 +1.1 93 -4 -4 980.2 979.3
14 8.12 СВ 8
{11}
н/о н/о +2.4 +1.5 94 -5 -5 978.2 977.3
13 8.12 СВ 8
{9}
н/о н/о +2.5 +1.6 94 -4 -4 979.0 978.1
15 8.12 С 10
{11}
н/о н/о +2.3 +1.4 94 -5 -5 977.1 976.2
16 8.12 С 10
{12}
н/о н/о +2.3 +1.4 94 -5 -5 976.4 975.5
17 8.12 С 9
{12}
н/о н/о +2.5 +1.8 95 -5 -5 975.8 974.9
18 8.12 С 10
{12}
н/о н/о +2.4 +1.7 95 -5 -5 975.3 974.4 +1.0 +2.6
20 8.12 С 11
{12}
н/о н/о +2.6 +1.9 95 -5 -5 974.4 973.5
19 8.12 С 10
{12}
н/о н/о +2.4 +1.7 95 -5 -5 974.7 973.8
21 8.12
{12}
н/о н/о +2.2 +1.5 95 974.3 973.4
22 8.12
{13}
н/о н/о +2.1 +1.4 95 974.2 973.3
23 8.12 С 8
{12}
н/о н/о +1.8 +1.1 95 -5 -5 974.1 973.2
00 9.12 С 8
{13}
н/о н/о +1.9 +1.2 95 -5 -5 974.2 973.3
02 9.12 С 6
{10}
н/о н/о +2.0 +1.0 93 -4 -4 975.4 974.5
01 9.12
{11}
н/о н/о +1.9 +1.0 94 974.6 973.7
03 9.12 С 7
{10}
н/о н/о +1.6 +0.5 92 -5 -5 975.8 974.9
04 9.12 С 5 н/о н/о +1.5 0.0 90 -4 -4 976.2 975.3
05 9.12 С 6
{8}
н/о н/о +1.4 -0.4 88 -5 -5 977.2 976.3
06 9.12 С 5
{11}
н/о н/о +1.3 -0.5 88 -5 -5 978.1 977.2 +1.2 +2.6
08 9.12 СЗ 6
{7}
н/о н/о +1.5 -0.3 88 -5 -5 980.3 979.4
07 9.12 С 5
{7}
н/о н/о +1.5 -0.1 89 -4 -4 979.1 978.2
09 9.12 СЗ 4
{6}
н/о н/о +1.6 -0.3 87 -4 -4 981.5 980.6
10 9.12 СЗ 5
{6}
н/о н/о +1.7 -0.5 85 -4 -4 982.2 981.3
11 9.12 С 5
{7}
н/о н/о +2.2 -0.5 82 -3 -3 983.1 982.2
12 9.12 СЗ 4
{7}
н/о н/о +2.2 -0.2 84 -3 -3 983.9 983.0
14 9.12 З 5
{7}
н/о н/о +3.2 +0.8 84 -2 -2 985.7 984.8
13 9.12 З 3
{5}
н/о н/о +2.8 +0.5 85 -1 -1 984.9 984.0
15 9.12 З 7
{8}
н/о н/о +3.3 +0.7 83 -3 -3 986.7 985.8
16 9.12 З 7
{9}
н/о н/о +3.6 +1.0 83 -2 -2 987.6 986.7
17 9.12 СЗ 6
{9}
н/о н/о +3.9 +0.8 80 -2 -2 988.6 987.7
18 9.12 СЗ 6
{9}
н/о н/о +3.6 +0.1 78 -2 -2 989.4 988.5 +1.3 +4.0
20 9.12 З 3
{5}
н/о н/о +3.5 -0.1 77 -0 -0 991.2 990.3
19 9.12 СЗ 5
{7}
н/о н/о +3.4 -0.2 77 -2 -2 990.2 989.3
21 9.12 СЗ 4
{6}
н/о н/о +3.2 -1.0 74 -1 -1 991.9 991.0
22 9.12 СЗ 6
{7}
н/о н/о +3.1 -1.2 73 -2 -2 992.4 991.5
23 9.12 СЗ 6
{8}
н/о н/о +2.7 -1.6 73 -3 -3 993.1 992.2
00 10.12 СЗ 4
{8}
н/о н/о +2.8 -2.3 69 -2 -2 993.6 992.7
02 10.12 СЗ 7
{9}
н/о н/о +3.3 -2.0 68 -2 -2 994.3 993.4
01 10.12 СЗ 7
{9}
н/о н/о +3.1 -2.0 69 -3 -3 993.6 992.7
03 10.12 СЗ 9
{11}
н/о н/о +3.5 -1.6 69 -3 -3 994.3 993.4
04 10.12 З 10 н/о н/о +4.0 -1.5 67 -3 -3 994.7 993.8
05 10.12 СЗ 8
{12}
н/о н/о +3.8 -1.5 68 -2 -2 995.2 994.3
06 10.12 СЗ 8
{13}
н/о н/о +3.9 -1.8 66 -2 -2 995.6 994.7 +2.6 +4.0
08 10.12 СЗ 8
{10}
н/о н/о +4.1 -1.2 68 -2 -2 996.9 996.0
07 10.12 СЗ 8
{10}
н/о н/о +4.0 -1.5 67 -2 -2 996.2 995.3
09 10.12 СЗ 8
{10}
н/о н/о +4.3 -1.3 67 -2 -2 997.6 996.7
10 10.12 СЗ 7
{10}
н/о н/о +4.4 -1.2 67 -1 -1 998.4 997.5
11 10.12 СЗ 8
{10}
н/о н/о +4.9 -1.1 65 -1 -1 999.2 998.3
12 10.12 СЗ 8
{11}
н/о н/о +5.9 -1.7 58 +1 +1 999.9 999.0
14 10.12 С 7
{13}
н/о н/о +5.8 -1.1 61 +1 +1 1002.2 1001.3
13 10.12 С 9
{12}
н/о н/о +6.1 -0.8 61 +1 +1 1001.0 1000.1
15 10.12 С 8
{11}
н/о н/о +6.1 -1.3 59 +1 +1 1003.3 1002.4
16 10.12 С 9
{15}
н/о н/о +5.9 -1.7 58 +1 +1 1004.0 1003.1
17 10.12 С 9
{15}
н/о н/о +5.9 -1.2 60 +1 +1 1005.3 1004.4
18 10.12 С 11
{15}
н/о н/о +6.0 -1.1 60 0 0 1006.1 1005.2 +3.9 +6.2
20 10.12
{17}
н/о н/о +5.9 -1.5 59 1008.2 1007.3
19 10.12 С 11
{16}
н/о н/о +6.0 -1.6 58 0 0 1007.3 1006.4
21 10.12 С 11
{14}
н/о н/о +5.9 -1.2 60 0 0 1009.2 1008.3
22 10.12
{14}
н/о н/о +5.7 -1.4 60 1010.1 1009.2
23 10.12
{15}
н/о н/о +5.6 -1.1 62 1011.2 1010.3
00 11.12 С 10
{17}
н/о н/о +5.7 -0.8 63 -0 -0 1012.2 1011.2
02 11.12
{14}
н/о н/о +5.9 -0.6 63 1014.0 1013.0
01 11.12 С 10
{14}
н/о н/о +5.8 -1.1 61 0 0 1013.4 1012.4
03 11.12
{14}
н/о н/о +5.8 -0.7 63 1014.9 1013.9
04 11.12 С 8
{12}
н/о н/о +5.5 -0.7 64 0 0 1016.0 1015.0
05 11.12 С 9
{12}
н/о н/о +5.4 -0.6 65 -0 -0 1016.8 1015.8
06 11.12
{14}
н/о н/о +5.5 -1.0 63 1017.5 1016.5 +5.4 +6.1
08 11.12 С 11
{15}
н/о н/о +5.5 -0.5 65 -1 -1 1019.2 1018.2
07 11.12
{15}
н/о н/о +5.5 -0.5 65 1018.1 1017.1
09 11.12
{15}
н/о н/о +5.3 -0.9 64 1020.3 1019.3
10 11.12 С 8
{13}
н/о н/о +5.1 -0.9 65 -0 -0 1021.2 1020.2
11 11.12
{13}
н/о н/о +5.1 -0.7 66 1021.7 1020.7
12 11.12 С 13
{16}
н/о н/о +5.6 -0.4 65 -1 -1 1021.7 1020.7
14 11.12 С 10 н/о н/о +5.5 -0.5 65 -0 -0 1023.3 1022.3
13 11.12 С 10 н/о н/о +5.5 -0.3 66 -0 -0 1022.9 1021.9
15 11.12 С 11 н/о н/о +5.4 -0.6 65 -1 -1 1023.8 1022.8
16 11.12 С 11 н/о н/о +5.0 -0.6 67 -1 -1 1024.4 1023.4
17 11.12 С 9
{12}
н/о н/о +4.7 -0.3 70 -1 -1 1025.1 1024.1
18 11.12 С 8 н/о н/о +4.0 -0.6 72 -2 -2 1025.9 1024.9
20 11.12 С 9 н/о н/о +4.1 -0.7 71 -2 -2 1026.8 1025.8
19 11.12 С 9
{11}
н/о н/о +4.4 -0.4 71 -2 -2 1026.2 1025.2
21 11.12 С 8
{11}
н/о н/о +3.8 -0.6 73 -2 -2 1027.4 1026.4
22 11.12 С 8
{9}
н/о н/о +3.5 -0.5 75 -3 -3 1027.7 1026.7
23 11.12 СВ 7
{9}
н/о н/о +3.2 -1.0 74 -3 -3 1028.2 1027.2
00 12.12 СВ 6
{11}
н/о н/о +3.0 -1.0 75 -3 -3 1028.4 1027.4
02 12.12
{8}
н/о н/о +2.0 -1.4 78 1029.6 1028.6
01 12.12 С 6
{9}
н/о н/о +2.6 -0.8 78 -3 -3 1028.8 1027.8
03 12.12 СВ 7
{9}
н/о н/о +2.6 -0.8 78 -4 -4 1029.8 1028.8
04 12.12 СВ 6
{9}
н/о н/о +2.3 -0.9 79 -4 -4 1030.2 1029.2
05 12.12 СВ 6
{8}
н/о н/о +2.1 -1.1 79 -4 -4 1030.4 1029.4
06 12.12 В 6
{9}
н/о н/о +1.9 -1.0 81 -4 -4 1030.9 1029.9 +1.8 +4.4
08 12.12 СВ 4
{7}
н/о н/о +2.3 -1.1 78 -2 -2 1031.7 1030.7
07 12.12 В 5
{8}
н/о н/о +2.0 -1.2 79 -3 -3 1031.3 1030.3
09 12.12 С 5
{8}
н/о н/о +1.6 -1.0 83 -4 -4 1032.2 1031.2
10 12.12 С 6
{8}
н/о н/о +1.0 -1.4 84 -5 -5 1032.4 1031.4
11 12.12
{9}
н/о н/о +1.1 -1.1 85 1032.5 1031.5
12 12.12 С 6
{9}
н/о н/о +1.0 -1.2 85 -5 -5 1032.7 1031.7
14 12.12 СВ 5
{8}
н/о н/о +1.3 -1.2 83 -4 -4 1032.9 1031.9
13 12.12 С 7
{8}
н/о н/о +0.9 -1.5 84 -6 -6 1032.7 1031.7
15 12.12 В 5
{7}
н/о н/о +1.0 -1.9 81 -5 -5 1033.1 1032.1
16 12.12 В 5
{6}
н/о н/о +0.7 -1.8 83 -5 -5 1033.2 1032.2
17 12.12 СВ 4
{7}
н/о н/о 0.0 -2.1 86 -5 -5 1033.4 1032.4
18 12.12 В 5
{8}
н/о н/о -0.2 -2.2 86 -6 -6 1033.7 1032.7 -0.2 +2.3
20 12.12 СВ 6
{8}
н/о н/о -0.7 -2.5 88 -8 -8 1034.2 1033.2
19 12.12 СВ 5
{7}
н/о н/о -0.4 -2.2 88 -7 -7 1034.1 1033.1
21 12.12 СВ 5
{8}
н/о н/о -0.8 -2.5 88 -7 -7 1034.3 1033.3
22 12.12 СВ 5
{8}
н/о н/о -1.0 -2.8 88 -7 -7 1034.4 1033.4
23 12.12 СВ 5
{8}
н/о н/о -1.1 -2.8 88 -8 -8 1034.5 1033.5
00 13.12 СВ 5
{9}
н/о н/о -1.1 -2.9 88 -8 -8 1034.5 1033.5
02 13.12 СВ 5
{7}
н/о н/о -1.0 -3.1 86 -7 -7 1034.2 1033.2
01 13.12 СВ 4
{8}
н/о н/о -1.1 -3.0 87 -7 -7 1034.4 1033.4
03 13.12 С 6
{8}
н/о н/о -0.5 -2.3 88 -7 -7 1033.9 1032.9
04 13.12 С 7
{9}
н/о н/о -1.3 -2.8 90 -9 -9 1033.7 1032.7
05 13.12 С 8 н/о н/о -1.1 -2.4 91 -9 -9 1033.4 1032.4
06 13.12
{10}
н/о н/о -1.5 -2.8 91 1033.6 1032.6 -1.5 -0.2
08 13.12
{12}
н/о н/о -1.5 -2.8 91 1033.9 1032.9
07 13.12 н/о н/о -1.7 -2.8 92 1033.7 1032.7
09 13.12
{12}
н/о н/о -1.0 -2.1 92 1034.0 1033.0
10 13.12 С 9
{13}
н/о н/о -0.7 -1.8 92 -9 -9 1034.0 1033.0
11 13.12 С 9
{12}
н/о н/о -0.6 -2.0 90 -9 -9 1033.8 1032.8
12 13.12 С 9
{13}
н/о н/о -0.7 -2.2 90 -9 -9 1033.7 1032.7
14 13.12 С 11
{12}
н/о н/о -0.8 -2.3 90 -10 -10 1033.6 1032.6
13 13.12 С 10
{11}
н/о н/о -0.8 -2.3 90 -9 -9 1033.6 1032.6
15 13.12 С 11
{13}
н/о н/о -1.1 -2.6 90 -10 -10 1033.7 1032.7
16 13.12 С 10
{12}
н/о н/о -1.1 -2.6 90 -10 -10 1033.9 1032.9
17 13.12 С 10
{12}
н/о н/о -1.1 -2.5 90 -10 -10 1033.9 1032.9
18 13.12 С 10
{13}
н/о н/о -1.3 -2.7 90 -10 -10 1034.0 1033.0 -1.7 -0.4
20 13.12 С 9
{12}
н/о н/о -1.5 -3.0 89 -10 -10 1034.2 1033.2
19 13.12 С 10
{12}
н/о н/о -1.3 -2.7 90 -10 -10 1034.0 1033.0
21 13.12 С 9
{11}
н/о н/о -1.4 -2.8 90 -10 -10 1034.5 1033.5
22 13.12 СВ 8
{10}
н/о н/о -1.3 -2.8 90 -9 -9 1034.5 1033.5

 

Местоположение метеостанции Ferder Fyr (Норвегия): широта 59.03 долгота 10.53 высота над уровнем моря 6 м.

В архиве по умолчанию представлена погода в Ferder Fyr за последнюю неделю. Архивные данные за месяц целиком и за предыдущие месяцы, начиная с января 2011 года, Вы можете получить, выбрав интересующий диапазон дат из раскрывающегося списка и нажав кнопку "Ввод!".


*Определитесь, кто Вы:
робот инопланетянин человек

Внимание! Время в таблицах - всемирное. Для получения местного времени необходимо прибавить поправку, которая в Ferder Fyr равна 1 ч.

Смотрите также архив погоды в соседних городах и на ближайших метеорологических станциях:

Погода в Stromtangen Fyr (Норвегия) (22 км)
Погода в Svenner Fyr (Норвегия) (23 км)
Погода в Melsom (Норвегия) (25 км)
Погода в Nordkoster (Швеция) (31 км)
Погода в Rygge (Норвегия) (42 км)
Погода в Sarpsborg (Норвегия) (44 км)
Погода в Gullholmen (Норвегия) (45 км)
Погода в Porsgrunn (Норвегия) (50 км)
Погода в Jomfruland (Норвегия) (58 км)
Погода в Vaderoarna (Швеция) (59 км)

Пояснения к столбцам:

Ветер - указаны скорость ветра в м/с - средняя за 10 мин, порывы в срок и между сроками (в фигурных скобках) и направление, откуда дует ветер: С - северный, СВ - северо-восточный, В - восточный, ЮВ - юго-восточный, Ю - южный, ЮЗ - юго-западный, З - западный, СЗ - северо-западный.
Видимость - горизонтальная дальность видимости в метрах или километрах. При видимости от 1 до 10 км при отсутствии осадков обычно наблюдается дымка, при ухудшении видимости до 1 км и менее - туман. В сухую погоду видимость может ухудшаться дымом, пылью или мглою.
Явления - указаны атмосферные явления, наблюдавшиеся в срок или в последний час перед сроком; фигурными скобками обозначены явления, наблюдавшиеся между сроками (за 1-3 часа до срока); квадратными скобками обозначены град или гололедные отложения с указанием их диаметра в мм.
Облачность - указаны через наклонную черту общая и нижняя облачность в баллах и высота нижней границы облаков в метрах; квадратными скобками обозначены формы облаков: Ci - перистые, Cs - перисто-слоистые, Cc - перисто-кучевые, Ac - высококучевые, As - высокослоистые, Sc - слоисто-кучевые, Ns - слоисто-дождевые, Cu - кучевые, Cb - кучево-дождевые. Подробнее классификацию облаков см. в Атласе облаков (PDF).
T - Температура воздуха - температура, измеренная на высоте 2 м над землей.
Td - Температура точки росы - температура, при понижении до которой содержащийся в воздухе водяной пар достигнет насыщения.
f - Относительная влажность воздуха - влажноcть воздуха, измеренная на высоте 2 м над землей.
Te - Эффективная температура - температура, которую ощущает одетый по сезону человек в тени. Характеристика душности погоды. При расчете учитывается влияние влажности воздуха и скорости ветра на теплоощущения человека.
Tes - Эффективная температура на солнце - температура, которую ощущает человек, с поправкой на солнечный нагрев. Характеристика знойности погоды. Зависит от высоты солнца над горизонтом, облачности и скорости ветра. Ночью, в пасмурную погоду, а также при ветре 12 м/с и более поправка равна нулю.
P - Атмосферное давление - приведенное к уровню моря атмосферное давление.
Po - Атмосферное давление - измеренное на уровне метеостанции атмосферное давление.
Tmin - Минимальная температура - минимум температуры воздуха на высоте 2 м над землей.
Tmax - Максимальная температура - максимум температуры воздуха на высоте 2 м над землей.
R - Количество осадков - Количество выпавших осадков за период времени, мм. При наведении курсора мыши на число - период времени, за который выпало указанное количество осадков.
R24 - Количество осадков - Количество выпавших осадков за 24 часа, мм.
S - Снежный покров - Высота снежного покрова, см. При наведении курсора мыши на число - состояние снежного покрова и степень покрытия местности в баллах.